Owatonna, Minnesota, United States (55060)
Lat: 44.08N, Lon: 93.23W
Wx Zone: MNZ085
Local Info
Past Weather Observations for Today

NOTE: This archive is for the closest National Weather Service station to Owatonna. Information may differ from the station used for current weather conditions.

Click here for Long-term Archive

Time Weather Temperature Dewpoint Humidity Pressure Winds Precip Visibility
09:55
Clear
79°F / 26°C 72°F / 22°C 79% 29.95 in
(1014 mb)
S 4.6 mph
(S 7 kph)
- 7SM
09:35
Clear
79°F / 26°C 72°F / 22°C 79% 29.95 in
(1014 mb)
S 4.6 mph
(S 7 kph)
- 7SM
09:15
Clear
77°F / 25°C 70°F / 21°C 79% 29.95 in
(1014 mb)
SSE 3.5 mph
(SSE 6 kph)
- 7SM
08:55
Clear
75°F / 24°C 70°F / 21°C 83% 29.95 in
(1014 mb)
S 5.8 mph
(S 9 kph)
- 10SM
08:35
Clear
75°F / 24°C 70°F / 21°C 83% 29.95 in
(1014 mb)
SSE 5.8 mph
(SSE 9 kph)
- 7SM
08:15
Clear
75°F / 24°C 70°F / 21°C 83% 29.95 in
(1014 mb)
SSE 5.8 mph
(SSE 9 kph)
- 7SM
07:55
Clear
73°F / 23°C 70°F / 21°C 89% 29.95 in
(1014 mb)
S 4.6 mph
(S 7 kph)
- 7SM
07:35
Clear
Fog And Mist
73°F / 23°C 70°F / 21°C 89% 29.95 in
(1014 mb)
SSE 8.1 mph
(SSE 13 kph)
- 5SM
07:15
Clear
Fog And Mist
72°F / 22°C 68°F / 20°C 88% 29.95 in
(1014 mb)
SE 9.2 mph
(SE 15 kph)
- 5SM
06:55
Clear
Fog And Mist
72°F / 22°C 68°F / 20°C 88% 29.95 in
(1014 mb)
SSE 8.1 mph
(SSE 13 kph)
- 4SM
06:35
Clear
Fog And Mist
70°F / 21°C 66°F / 19°C 88% 29.95 in
(1014 mb)
SE 4.6 mph
(SE 7 kph)
- 3SM
06:15
Clear
Fog And Mist
70°F / 21°C 66°F / 19°C 88% 29.95 in
(1014 mb)
Calm - 3SM
05:55
Clear
Fog And Mist
70°F / 21°C 66°F / 19°C 88% 29.95 in
(1014 mb)
SE 5.8 mph
(SE 9 kph)
- 3SM
05:35
Clear
Fog And Mist
70°F / 21°C 66°F / 19°C 88% 29.95 in
(1014 mb)
SE 6.9 mph
(SE 11 kph)
- 4SM
05:15
Clear
Fog And Mist
70°F / 21°C 66°F / 19°C 88% 29.95 in
(1014 mb)
SE 6.9 mph
(SE 11 kph)
- 5SM
04:55
Clear
Fog And Mist
70°F / 21°C 66°F / 19°C 88% 29.95 in
(1014 mb)
SSE 6.9 mph
(SSE 11 kph)
- 5SM
04:35
Clear
Fog And Mist
68°F / 20°C 64°F / 18°C 88% 29.95 in
(1014 mb)
SE 5.8 mph
(SE 9 kph)
- 5SM
04:15
Clear
Fog And Mist
68°F / 20°C 66°F / 19°C 94% 29.95 in
(1014 mb)
SSE 8.1 mph
(SSE 13 kph)
- 4SM
03:55
Clear
Fog And Mist
68°F / 20°C 64°F / 18°C 88% 29.95 in
(1014 mb)
SSE 8.1 mph
(SSE 13 kph)
- 4SM
03:35
Clear
Fog And Mist
68°F / 20°C 64°F / 18°C 88% 29.95 in
(1014 mb)
SSE 8.1 mph
(SSE 13 kph)
- 4SM
03:15
Clear
Fog And Mist
68°F / 20°C 64°F / 18°C 88% 29.95 in
(1014 mb)
SSE 8.1 mph
(SSE 13 kph)
- 4SM
02:55
Clear
Fog And Mist
68°F / 20°C 64°F / 18°C 88% 29.95 in
(1014 mb)
SSE 8.1 mph
(SSE 13 kph)
- 4SM
02:35
Clear
Fog And Mist
70°F / 21°C 64°F / 18°C 83% 29.95 in
(1014 mb)
SSE 6.9 mph
(SSE 11 kph)
- 5SM
02:15
Clear
Fog And Mist
70°F / 21°C 64°F / 18°C 83% 29.95 in
(1014 mb)
SSE 5.8 mph
(SSE 9 kph)
- 5SM
01:55
Clear
Fog And Mist
70°F / 21°C 66°F / 19°C 88% 29.95 in
(1014 mb)
S 5.8 mph
(S 9 kph)
- 5SM
01:35
Clear
Fog And Mist
70°F / 21°C 66°F / 19°C 88% 29.95 in
(1014 mb)
SSE 6.9 mph
(SSE 11 kph)
- 4SM
01:15
Clear
Fog And Mist
70°F / 21°C 66°F / 19°C 88% 29.95 in
(1014 mb)
SSE 8.1 mph
(SSE 13 kph)
- 5SM
00:55
Clear
70°F / 21°C 66°F / 19°C 88% 29.95 in
(1014 mb)
S 5.8 mph
(S 9 kph)
- 7SM
00:35
Clear
Fog And Mist
70°F / 21°C 66°F / 19°C 88% 29.95 in
(1014 mb)
S 5.8 mph
(S 9 kph)
- 5SM
00:15
Clear
Fog And Mist
70°F / 21°C 66°F / 19°C 88% 29.95 in
(1014 mb)
S 5.8 mph
(S 9 kph)
- 5SM
Time Weather Temperature Dewpoint Humidity Pressure Winds Precip Visibility


Weather for websites

WeatherForYou.com, LLC is not responsible for any damages or problems caused by this service. Current weather conditions are obtained from the closest station including government and personal stations which may have varying degrees of accuracy. Weather forecasts are derived from the NOAA NDFD. Like all things, this site belongs to Jesus Christ... He just trusts us to maintain it. If you have any questions or comments email webmaster@weatherforyou.com

Copyright © 2015, WeatherForYou.com LLC. All rights reserved.